Weather History for Fosston, MN

Change the Weather History Date:

Saturday, February 2, 2013

  Actual Average Record
Temperature  
Mean Temperature -10 °F -  
Max Temperature 3 °F 13 °F 43 °F (1962)
Min Temperature -23 °F -5 °F -35 °F (1988)
Degree Days  
Heating Degree Days 75    
Moisture  
Dew Point -12 °F    
Average Humidity 79    
Maximum Humidity 85    
Minimum Humidity 61    
Precipitation  
Precipitation 0.00 in - - ()
Sea Level Pressure  
Sea Level Pressure 30.03 in    
Wind  
Wind Speed 3 mph (SW)    
Max Wind Speed 14 mph    
Max Gust Speed -    
Visibility 8 miles    
Events Snow    
Averages and records for this station are not official NWS values.
T = Trace of Precipitation, MM = Missing Value Source: NWS Daily Summary

Daily Weather History Graph

Daily Weather History Graph

Search for Another Location

Airport:

Trip Planner

Search our weather history database for the weather conditions in past years. The results will help you decide how hot, cold, wet, or windy it might be!

Date:

Astronomy

Feb. 02, 2013 Rise Set
Actual Time 7:47 AM CST 5:26 PM CST
Civil Twilight 7:15 AM CST 5:59 PM CST
Nautical Twilight 6:38 AM CST 6:36 PM CST
Astronomical Twilight 6:02 AM CST 7:12 PM CST
Moon 12:04 AM CST (2/2) 10:26 AM CST (2/2)
Length of Visible Light 10h 44m
Length of Day
9h 38m
Waning Gibbous, 59% of the Moon is Illuminated
Feb 2
Waning Gibbous
Feb 3
Last Quarter
Feb 10
New
Feb 17
First Quarter
Feb 25
Full

Hourly Weather History & Observations

Time (CST) Temp. Windchill Dew Point Humidity Pressure Visibility Wind Dir Wind Speed Gust Speed Precip Events Conditions
12:15 AM -9.4 °F - -14.8 °F 77% 30.07 in 5.0 mi Calm Calm - N/A Snow Light Snow
12:36 AM -11.2 °F - -14.8 °F 84% 30.07 in 10.0 mi Calm Calm - N/A Snow Light Snow
12:55 AM -11.2 °F - -16.6 °F 77% 30.08 in 10.0 mi Calm Calm - N/A   Clear
1:16 AM -13.0 °F - -16.6 °F 84% 30.08 in 10.0 mi Calm Calm - N/A   Clear
1:35 AM -14.8 °F - -18.4 °F 84% 30.09 in 10.0 mi Calm Calm - N/A   Scattered Clouds
1:55 AM -14.8 °F - -18.4 °F 84% 30.09 in 10.0 mi Calm Calm - N/A   Scattered Clouds
2:16 AM -16.6 °F - -20.2 °F 84% 30.10 in 10.0 mi Calm Calm - N/A   Scattered Clouds
2:35 AM -16.6 °F - -20.2 °F 84% 30.11 in 10.0 mi Calm Calm - N/A   Clear
2:55 AM -16.6 °F - -20.2 °F 84% 30.11 in 10.0 mi Calm Calm - N/A   Clear
3:16 AM -16.6 °F - -20.2 °F 84% 30.11 in 10.0 mi Calm Calm - N/A   Clear
3:35 AM -18.4 °F - -25.6 °F 70% 30.12 in 10.0 mi Calm Calm - N/A   Clear
3:55 AM -20.2 °F - -25.6 °F 76% 30.12 in 10.0 mi Calm Calm - N/A   Clear
4:16 AM -20.2 °F - -27.4 °F 69% 30.12 in 10.0 mi Calm Calm - N/A   Clear
4:35 AM -22.0 °F - -27.4 °F 76% 30.12 in 10.0 mi Calm Calm - N/A   Clear
4:55 AM -23.8 °F - -29.2 °F 76% 30.12 in 10.0 mi Calm Calm - N/A   Clear
5:16 AM -23.8 °F - -27.4 °F 83% 30.12 in 10.0 mi Calm Calm - N/A   Clear
5:35 AM -23.8 °F - -29.2 °F 76% 30.12 in 10.0 mi Calm Calm - N/A   Clear
6:15 AM -23.8 °F - -29.2 °F 76% 30.11 in 10.0 mi Calm Calm - N/A   Clear
6:35 AM -23.8 °F - -29.2 °F 76% 30.10 in 10.0 mi Calm Calm - N/A   Clear
6:55 AM -23.8 °F - -29.2 °F 76% 30.10 in 10.0 mi Calm Calm - N/A   Clear
7:15 AM -23.8 °F - -31.0 °F 69% 30.10 in 10.0 mi Calm Calm - N/A   Clear
7:35 AM -23.8 °F - -29.2 °F 76% 30.10 in 10.0 mi Calm Calm - N/A   Scattered Clouds
7:55 AM -22.0 °F - -27.4 °F 76% 30.09 in 10.0 mi Calm Calm - N/A   Mostly Cloudy
8:15 AM -20.2 °F - -25.6 °F 76% 30.10 in 10.0 mi Calm Calm - N/A   Scattered Clouds
8:35 AM -16.6 °F - -20.2 °F 84% 30.10 in 10.0 mi Calm Calm - N/A   Scattered Clouds
8:55 AM -14.8 °F - -20.2 °F 77% 30.10 in 10.0 mi Calm Calm - N/A   Scattered Clouds
9:15 AM -14.8 °F - -18.4 °F 84% 30.09 in 10.0 mi Calm Calm - N/A   Mostly Cloudy
9:35 AM -11.2 °F - -16.6 °F 77% 30.08 in 10.0 mi Calm Calm - N/A   Scattered Clouds
9:55 AM -11.2 °F -24.8 °F -14.8 °F 84% 30.06 in 10.0 mi SSE 5.8 mph - N/A   Clear
10:15 AM -7.6 °F -16.5 °F -13.0 °F 77% 30.06 in 10.0 mi South 3.5 mph - N/A   Clear
10:35 AM -5.8 °F - -11.2 °F 77% 30.07 in 10.0 mi Calm Calm - N/A   Clear
10:55 AM -5.8 °F -19.9 °F -9.4 °F 84% 30.06 in 10.0 mi SSW 6.9 mph - N/A   Clear
11:15 AM -2.2 °F -15.6 °F -9.4 °F 71% 30.04 in 10.0 mi South 6.9 mph - N/A   Clear
11:35 AM -2.2 °F -18.0 °F -9.4 °F 71% 30.03 in 10.0 mi South 9.2 mph - N/A   Clear
11:55 AM -0.4 °F -19.2 °F -9.4 °F 66% 30.00 in 10.0 mi South 13.8 mph - N/A   Clear
12:15 PM 1.4 °F -14.5 °F -9.4 °F 61% 29.98 in 10.0 mi South 10.4 mph - N/A   Clear
12:35 PM 3.2 °F -12.2 °F -5.8 °F 66% 30.01 in 10.0 mi SW 10.4 mph - N/A   Clear
12:55 PM 3.2 °F -13.1 °F -5.8 °F 66% 29.99 in 10.0 mi SSW 11.5 mph - N/A   Mostly Cloudy
1:15 PM -0.4 °F -16.7 °F -5.8 °F 78% 29.98 in 10.0 mi SSW 10.4 mph - N/A   Overcast
1:35 PM -0.4 °F -17.6 °F -5.8 °F 78% 29.98 in 10.0 mi SSW 11.5 mph - N/A Snow Light Snow
1:55 PM 1.4 °F -13.5 °F -7.6 °F 66% 29.97 in 1.8 mi SSW 9.2 mph - N/A Snow Light Snow
2:15 PM 1.4 °F -13.5 °F -5.8 °F 72% 29.97 in 1.2 mi SSW 9.2 mph - N/A Snow Light Snow
2:35 PM 1.4 °F -11.3 °F -5.8 °F 72% 29.96 in 1.2 mi SSW 6.9 mph - N/A Snow Light Snow
2:55 PM 1.4 °F -12.5 °F -4.0 °F 78% 29.96 in 1.0 mi SSW 8.1 mph - N/A Snow Light Snow
3:15 PM 1.4 °F -9.9 °F -4.0 °F 78% 29.95 in 1.2 mi South 5.8 mph - N/A Snow Light Snow
3:35 PM 3.2 °F -10.3 °F -4.0 °F 72% 29.93 in 0.8 mi South 8.1 mph - N/A Snow Light Snow
3:55 PM 3.2 °F -9.1 °F -2.2 °F 78% 29.94 in 2.0 mi SSW 6.9 mph - N/A Snow Light Snow
4:15 PM 3.2 °F -6.2 °F -2.2 °F 78% 29.93 in 2.0 mi SSW 4.6 mph - N/A Snow Light Snow
4:35 PM 3.2 °F -4.2 °F -2.2 °F 78% 29.94 in 1.2 mi SW 3.5 mph - N/A Snow Light Snow
4:55 PM 1.4 °F -6.2 °F -2.2 °F 85% 29.94 in 2.0 mi SSW 3.5 mph - N/A Snow Light Snow
5:15 PM 1.4 °F - -2.2 °F 85% 29.94 in 2.0 mi Calm Calm - N/A Snow Light Snow
5:35 PM 3.2 °F - -2.2 °F 78% 29.94 in 2.5 mi Calm Calm - N/A Snow Light Snow
5:55 PM 1.4 °F - -2.2 °F 85% 29.95 in 4.0 mi Calm Calm - N/A Snow Light Snow
6:35 PM 1.4 °F -8.3 °F -2.2 °F 85% 29.97 in 3.0 mi West 4.6 mph - N/A Snow Light Snow
6:55 PM 1.4 °F - -2.2 °F 85% 29.96 in 4.0 mi Calm Calm - N/A Snow Light Snow
7:15 PM 1.4 °F -9.9 °F -2.2 °F 85% 29.96 in 7.0 mi West 5.8 mph - N/A Snow Light Snow
7:35 PM 1.4 °F -11.3 °F -2.2 °F 85% 29.97 in 7.0 mi West 6.9 mph - N/A Snow Light Snow
7:55 PM 1.4 °F -12.5 °F -2.2 °F 85% 29.98 in 10.0 mi West 8.1 mph - N/A Snow Light Snow
8:15 PM 1.4 °F -13.5 °F -2.2 °F 85% 29.97 in 10.0 mi West 9.2 mph - N/A Snow Light Snow
8:35 PM 1.4 °F -13.5 °F -2.2 °F 85% 29.97 in 10.0 mi West 9.2 mph - N/A Snow Light Snow
8:55 PM 1.4 °F -14.5 °F -2.2 °F 85% 29.97 in 7.0 mi West 10.4 mph - N/A Snow Light Snow
9:15 PM 1.4 °F -11.3 °F -2.2 °F 85% 29.97 in 10.0 mi West 6.9 mph - N/A Snow Light Snow
9:35 PM 1.4 °F -14.5 °F -2.2 °F 85% 29.98 in 10.0 mi WNW 10.4 mph - N/A Snow Light Snow
9:55 PM 1.4 °F -12.5 °F -2.2 °F 85% 29.98 in 7.0 mi WNW 8.1 mph - N/A Snow Light Snow
10:15 PM 1.4 °F -12.5 °F -2.2 °F 85% 29.98 in 7.0 mi WNW 8.1 mph - N/A Snow Light Snow
10:35 PM 1.4 °F -12.5 °F -2.2 °F 85% 29.98 in 7.0 mi WNW 8.1 mph - N/A Snow Light Snow
10:55 PM 1.4 °F -11.3 °F -2.2 °F 85% 29.98 in 10.0 mi WNW 6.9 mph - N/A Snow Light Snow
11:15 PM 1.4 °F -12.5 °F -2.2 °F 85% 29.98 in 10.0 mi WNW 8.1 mph - N/A   Overcast
11:40 PM 1.4 °F -15.3 °F -2.2 °F 85% 30.00 in 10.0 mi West 11.5 mph - N/A   Overcast
11:55 PM 1.4 °F -12.5 °F -2.2 °F 85% 29.99 in 10.0 mi WNW 8.1 mph - N/A Snow Light Snow